Weather History for Wahpeton, ND

Change the Weather History Date:

Monday, November 12, 2012

  Actual Average (KFFM) Record (KFFM)
Temperature  
Mean Temperature 19 °F -  
Max Temperature 24 °F 36 °F 62 °F (2011)
Min Temperature 14 °F 20 °F -3 °F (1986)
Degree Days  
Heating Degree Days 46    
Moisture  
Dew Point 12 °F    
Average Humidity 77    
Maximum Humidity 86    
Minimum Humidity 63    
Precipitation  
Precipitation 0.00 in - - ()
Sea Level Pressure  
Sea Level Pressure 30.07 in    
Wind  
Wind Speed 15 mph (WNW)    
Max Wind Speed 23 mph    
Max Gust Speed 28 mph    
Visibility 10 miles    
Events      
Averages and records for this station are not official NWS values.
T = Trace of Precipitation, MM = Missing Value Source: NWS Daily Summary

Daily Weather History Graph

Daily Weather History Graph

Search for Another Location

Airport:

Trip Planner

Search our weather history database for the weather conditions in past years. The results will help you decide how hot, cold, wet, or windy it might be!

Date:

Astronomy

Nov. 12, 2012 Rise Set
Actual Time 7:24 AM CST 4:56 PM CST
Civil Twilight 6:51 AM CST 5:29 PM CST
Nautical Twilight 6:15 AM CST 6:05 PM CST
Astronomical Twilight 5:40 AM CST 6:40 PM CST
Moon 5:48 AM CST (11/12) 4:04 PM CST (11/12)
Length of Visible Light 10h 37m
Length of Day
9h 32m
Waning Crescent, 2% of the Moon is Illuminated
Nov 12
Waning Crescent
Nov 13
New
Nov 20
First Quarter
Nov 28
Full
Dec 6
Last Quarter

Hourly Weather History & Observations

Time (CST) Temp. Windchill Dew Point Humidity Pressure Visibility Wind Dir Wind Speed Gust Speed Precip Events Conditions
12:15 AM 19.4 °F 4.5 °F 14.0 °F 80% 29.88 in 10.0 mi West 17.3 mph 20.7 mph N/A   Overcast
12:35 AM 19.4 °F 5.5 °F 14.0 °F 80% 29.88 in 10.0 mi West 15.0 mph 20.7 mph N/A   Overcast
12:55 AM 19.4 °F 3.2 °F 14.0 °F 80% 29.88 in 4.0 mi West 20.7 mph - N/A   Overcast
1:15 AM 19.4 °F 4.1 °F 15.8 °F 86% 29.88 in 4.0 mi WNW 18.4 mph - N/A   Overcast
1:55 AM 19.4 °F 5.5 °F 15.8 °F 86% 29.89 in 4.0 mi WNW 15.0 mph - N/A   Overcast
2:15 AM 19.4 °F 7.2 °F 15.8 °F 86% 29.89 in 2.5 mi West 11.5 mph - N/A   Overcast
2:35 AM 19.4 °F 6.6 °F 14.0 °F 80% 29.90 in 10.0 mi WNW 12.7 mph - N/A   Overcast
2:55 AM 19.4 °F 4.5 °F 15.8 °F 86% 29.90 in 5.0 mi West 17.3 mph - N/A   Overcast
3:15 AM 19.4 °F 4.1 °F 14.0 °F 80% 29.90 in 7.0 mi WNW 18.4 mph 23.0 mph N/A   Overcast
3:35 AM 19.4 °F 5.0 °F 14.0 °F 80% 29.90 in 10.0 mi WNW 16.1 mph - N/A   Overcast
3:55 AM 19.4 °F 3.2 °F 14.0 °F 80% 29.91 in 10.0 mi WNW 20.7 mph - N/A   Overcast
4:15 AM 19.4 °F 4.1 °F 14.0 °F 80% 29.91 in 10.0 mi WNW 18.4 mph - N/A   Overcast
4:35 AM 17.6 °F 1.3 °F 12.2 °F 79% 29.92 in 10.0 mi WNW 19.6 mph 24.2 mph N/A   Overcast
4:55 AM 17.6 °F 1.3 °F 12.2 °F 79% 29.93 in 10.0 mi WNW 19.6 mph 25.3 mph N/A   Mostly Cloudy
5:15 AM 17.6 °F 0.1 °F 12.2 °F 79% 29.93 in 10.0 mi WNW 23.0 mph 26.5 mph N/A   Overcast
5:35 AM 17.6 °F 1.7 °F 12.2 °F 79% 29.94 in 10.0 mi WNW 18.4 mph 25.3 mph N/A   Overcast
5:55 AM 17.6 °F 2.2 °F 12.2 °F 79% 29.95 in 10.0 mi WNW 17.3 mph 24.2 mph N/A   Overcast
6:15 AM 15.8 °F -1.1 °F 10.4 °F 79% 29.95 in 10.0 mi WNW 19.6 mph - N/A   Overcast
6:35 AM 15.8 °F -0.6 °F 10.4 °F 79% 29.96 in 10.0 mi WNW 18.4 mph 27.6 mph N/A   Overcast
6:55 AM 15.8 °F 0.3 °F 10.4 °F 79% 29.96 in 10.0 mi WNW 16.1 mph 23.0 mph N/A   Overcast
7:15 AM 15.8 °F -1.9 °F 10.4 °F 79% 29.98 in 10.0 mi WNW 21.9 mph - N/A   Overcast
7:35 AM 14.0 °F -4.3 °F 8.6 °F 79% 29.99 in 10.0 mi WNW 21.9 mph - N/A   Overcast
7:55 AM 14.0 °F -3.0 °F 8.6 °F 79% 30.00 in 10.0 mi WNW 18.4 mph 26.5 mph N/A   Overcast
8:15 AM 14.0 °F -3.4 °F 8.6 °F 79% 30.01 in 10.0 mi WNW 19.6 mph 25.3 mph N/A   Overcast
8:35 AM 14.0 °F -3.0 °F 8.6 °F 79% 30.02 in 10.0 mi WNW 18.4 mph 25.3 mph N/A   Overcast
8:55 AM 14.0 °F -3.0 °F 8.6 °F 79% 30.02 in 10.0 mi WNW 18.4 mph - N/A   Overcast
9:15 AM 15.8 °F -2.3 °F 8.6 °F 73% 30.02 in 10.0 mi WNW 23.0 mph - N/A   Overcast
9:35 AM 15.8 °F -1.1 °F 8.6 °F 73% 30.04 in 10.0 mi NW 19.6 mph 27.6 mph N/A   Overcast
9:55 AM 17.6 °F 0.1 °F 8.6 °F 68% 30.05 in 10.0 mi NW 23.0 mph - N/A   Overcast
10:15 AM 17.6 °F 1.3 °F 10.4 °F 73% 30.06 in 10.0 mi WNW 19.6 mph 26.5 mph N/A   Overcast
10:35 AM 19.4 °F 4.5 °F 10.4 °F 68% 30.07 in 10.0 mi NW 17.3 mph - N/A   Overcast
10:55 AM 19.4 °F 4.5 °F 12.2 °F 74% 30.07 in 10.0 mi NW 17.3 mph 23.0 mph N/A   Overcast
11:15 AM 21.2 °F 5.6 °F 12.2 °F 68% 30.08 in 10.0 mi NW 20.7 mph 25.3 mph N/A   Overcast
11:35 AM 21.2 °F 7.8 °F 12.2 °F 68% 30.08 in 10.0 mi NW 15.0 mph - N/A   Mostly Cloudy
11:55 AM 21.2 °F 6.8 °F 12.2 °F 68% 30.08 in 10.0 mi WNW 17.3 mph - N/A   Scattered Clouds
12:15 PM 21.2 °F 6.8 °F 12.2 °F 68% 30.09 in 10.0 mi WNW 17.3 mph - N/A   Mostly Cloudy
12:35 PM 23.0 °F 9.6 °F 12.2 °F 63% 30.09 in 10.0 mi WNW 16.1 mph 23.0 mph N/A   Overcast
12:55 PM 23.0 °F 9.2 °F 14.0 °F 68% 30.09 in 10.0 mi WNW 17.3 mph - N/A   Scattered Clouds
1:15 PM 23.0 °F 8.3 °F 14.0 °F 68% 30.10 in 10.0 mi WNW 19.6 mph 24.2 mph N/A   Mostly Cloudy
1:35 PM 23.0 °F 10.1 °F 14.0 °F 68% 30.10 in 10.0 mi NW 15.0 mph 18.4 mph N/A   Overcast
1:55 PM 21.2 °F 7.3 °F 14.0 °F 74% 30.11 in 10.0 mi NW 16.1 mph - N/A   Overcast
2:15 PM 23.0 °F 10.1 °F 14.0 °F 68% 30.11 in 10.0 mi NW 15.0 mph 20.7 mph N/A   Mostly Cloudy
2:35 PM 24.8 °F 11.5 °F 14.0 °F 64% 30.12 in 10.0 mi WNW 17.3 mph - N/A   Mostly Cloudy
2:55 PM 23.0 °F 10.6 °F 14.0 °F 68% 30.13 in 10.0 mi NW 13.8 mph 19.6 mph N/A   Mostly Cloudy
3:15 PM 23.0 °F 10.6 °F 14.0 °F 68% 30.14 in 10.0 mi WNW 13.8 mph - N/A   Scattered Clouds
3:35 PM 23.0 °F 11.7 °F 14.0 °F 68% 30.14 in 10.0 mi WNW 11.5 mph - N/A   Clear
3:55 PM 24.8 °F 12.4 °F 15.8 °F 69% 30.15 in 10.0 mi WNW 15.0 mph - N/A   Clear
4:35 PM 23.0 °F 11.1 °F 15.8 °F 74% 30.17 in 10.0 mi WNW 12.7 mph - N/A   Clear
4:55 PM 23.0 °F 12.4 °F 15.8 °F 74% 30.17 in 10.0 mi WNW 10.4 mph - N/A   Clear
5:15 PM 21.2 °F 11.7 °F 14.0 °F 74% 30.18 in 10.0 mi WNW 8.1 mph - N/A   Clear
5:35 PM 21.2 °F 13.6 °F 14.0 °F 74% 30.19 in 10.0 mi WNW 5.8 mph - N/A   Clear
5:55 PM 19.4 °F 10.4 °F 14.0 °F 80% 30.19 in 10.0 mi West 6.9 mph - N/A   Clear
6:15 PM 17.6 °F 9.3 °F 14.0 °F 86% 30.20 in 10.0 mi West 5.8 mph - N/A   Clear
6:35 PM 19.4 °F 9.5 °F 14.0 °F 80% 30.21 in 10.0 mi West 8.1 mph - N/A   Clear
6:55 PM 17.6 °F 8.2 °F 12.2 °F 79% 30.22 in 10.0 mi West 6.9 mph - N/A   Clear
7:15 PM 17.6 °F 10.7 °F 12.2 °F 79% 30.22 in 10.0 mi West 4.6 mph - N/A   Clear
7:35 PM 17.6 °F 12.3 °F 12.2 °F 79% 30.22 in 10.0 mi West 3.5 mph - N/A   Clear
7:55 PM 17.6 °F 12.3 °F 12.2 °F 79% 30.22 in 10.0 mi West 3.5 mph - N/A   Clear
8:15 PM 17.6 °F - 12.2 °F 79% 30.22 in 10.0 mi Calm Calm - N/A   Clear
8:35 PM 17.6 °F - 12.2 °F 79% 30.22 in 10.0 mi Calm Calm - N/A   Clear
8:55 PM 15.8 °F 7.2 °F 10.4 °F 79% 30.22 in 10.0 mi WSW 5.8 mph - N/A   Clear
9:15 PM 15.8 °F 10.2 °F 10.4 °F 79% 30.23 in 10.0 mi SW 3.5 mph - N/A   Clear
9:35 PM 15.8 °F 10.2 °F 10.4 °F 79% 30.23 in 10.0 mi SW 3.5 mph - N/A   Clear
9:55 PM 14.0 °F 6.5 °F 8.6 °F 79% 30.23 in 10.0 mi SSW 4.6 mph - N/A   Clear
10:15 PM 14.0 °F 8.2 °F 10.4 °F 86% 30.23 in 10.0 mi SSW 3.5 mph - N/A   Clear
10:35 PM 14.0 °F 8.2 °F 10.4 °F 86% 30.23 in 10.0 mi SSW 3.5 mph - N/A   Clear
10:55 PM 14.0 °F 6.5 °F 8.6 °F 79% 30.22 in 10.0 mi SSW 4.6 mph - N/A   Clear
11:15 PM 14.0 °F 6.5 °F 10.4 °F 86% 30.22 in 10.0 mi SE 4.6 mph - N/A   Clear
11:35 PM 14.0 °F 6.5 °F 10.4 °F 86% 30.22 in 10.0 mi SE 4.6 mph - N/A   Clear
11:55 PM 14.0 °F 6.5 °F 10.4 °F 86% 30.23 in 10.0 mi SE 4.6 mph - N/A   Clear